Location: Hylvaty SDH
(49.9612°N, 16.4057°E)
Time: 01:11:13
(UTC+02:00)

SR - Visible Passes

Search period start: 12 August 2020 00:00
Search period end: 22 August 2020 00:00
Orbit: 584 x 871 km, 66.7° (Epoch: 11 August)

Date Brightness Start Highest point End Pass type
(mag) Time Alt. Az. Time Alt. Az. Time Alt. Az.
12 Aug ? 01:02:22 10° NW 01:04:25 13° NNW 01:06:28 10° N visible
12 Aug ? 04:29:37 10° N 04:32:23 16° NNE 04:35:11 10° ENE visible
12 Aug ? 20:47:41 10° SE 20:50:05 14° ESE 20:52:27 10° ENE visible
12 Aug ? 22:27:02 10° SW 22:31:32 83° NW 22:35:52 10° NE visible
13 Aug ? 00:11:07 10° WNW 00:14:12 18° NNW 00:17:13 10° NNE visible
13 Aug ? 03:40:28 10° N 03:42:07 12° NNE 03:43:48 10° NE visible
13 Aug ? 21:37:31 10° SSW 21:41:54 51° ESE 21:46:05 10° NE visible
13 Aug ? 23:20:18 10° W 23:24:07 28° NW 23:27:50 10° NNE visible
14 Aug ? 01:07:05 10° NNW 01:07:35 10° NNW 01:08:06 10° N visible
14 Aug ? 04:31:52 10° NNW 04:35:22 23° NE 04:38:57 10° E visible
14 Aug ? 20:48:39 10° S 20:52:23 26° ESE 20:56:00 10° ENE visible
14 Aug ? 22:29:54 10° WSW 22:34:12 47° NW 22:38:21 10° NNE visible
15 Aug ? 00:15:06 10° NW 00:17:15 13° NNW 00:19:23 10° N visible
15 Aug ? 03:42:32 10° N 03:45:14 16° NNE 03:47:57 10° ENE visible
15 Aug ? 21:39:56 10° SW 21:44:26 88° NW 21:48:45 10° NE visible
15 Aug ? 23:23:54 10° W 23:27:02 19° NNW 23:30:08 10° NNE visible
16 Aug ? 02:53:25 10° N 02:54:58 12° NNE 02:56:30 10° NE visible
16 Aug ? 04:34:13 10° NNW 04:38:13 36° NE 04:42:22 10° ESE visible
16 Aug ? 20:50:29 10° SSW 20:54:48 47° ESE 20:58:57 10° NE visible
16 Aug ? 22:33:07 10° WSW 22:36:59 29° NW 22:40:45 10° NNE visible
17 Aug ? 00:19:39 10° NNW 00:20:25 10° NNW 00:21:11 10° N visible
17 Aug ? 03:44:47 10° NNW 03:48:13 23° NE 03:51:45 10° E visible
17 Aug ? 21:42:45 10° SW 21:47:04 50° NW 21:51:15 10° NNE visible
17 Aug ? 23:27:50 10° WNW 23:30:05 14° NNW 23:32:19 10° N visible
18 Aug ? 02:55:28 10° N 02:58:04 15° NNE 03:00:43 10° ENE visible
18 Aug ? 04:36:39 10° NNW 04:40:56 61° NE 04:45:26 10° SE visible
18 Aug ? 20:52:51 10° SW 20:57:19 87° SE 21:01:38 10° NE visible
18 Aug ? 22:36:41 10° W 22:39:53 20° NNW 22:43:03 10° NNE visible
19 Aug ? 02:06:21 10° N 02:07:47 11° NNE 02:09:13 10° NE visible
19 Aug ? 03:47:07 10° NNW 03:51:05 34° NE 03:55:13 10° ESE visible
19 Aug ? 21:45:57 10° WSW 21:49:51 30° NW 21:53:39 10° NNE visible
19 Aug ? 23:32:18 10° NNW 23:33:15 11° NNW 23:34:12 10° N visible
20 Aug ? 02:57:42 10° NNW 03:01:05 22° NE 03:04:33 10° E visible
20 Aug ? 04:39:12 10° NW 04:43:33 77° SW 04:48:08 10° SSE visible
20 Aug ? 20:55:38 10° SW 20:59:57 52° NW 21:04:09 10° NNE visible
20 Aug ? 22:40:35 10° WNW 22:42:56 14° NNW 22:45:15 10° N visible
21 Aug ? 02:08:23 10° N 02:10:55 15° NNE 02:13:29 10° ENE visible
21 Aug ? 03:49:32 10° NNW 03:53:49 57° NE 03:58:19 10° SE visible
21 Aug ? 21:49:28 10° W 21:52:45 20° NW 21:55:58 10° NNE visible
